Regional Weather Roundup
Issued by NWS Cleveland, OH

Home | Current Version | Previous Version | Graphics & Text | Print | Product List | Glossary On
Versions: 1 2 3 4 5 6 7 8 9 10 11 12 13 14 15 16 17 18 19 20 21 22 23 24 25 26 27 28 29 30 31 32 33 34 35 36 37 38 39 40 41 42 43 44 45 46 47 48 49 50
000
ASUS41 KCLE 042100
RWRCLE
OHIO REGIONAL WEATHER ROUNDUP
NATIONAL WEATHER SERVICE WILMINGTON, OH
500 PM EDT FRI SEP 04 2015

NOTE: "FAIR" INDICATES FEW OR NO CLOUDS BELOW 12,000 FEET WITH NO
SIGNIFICANT WEATHER AND/OR OBSTRUCTIONS TO VISIBILITY.

OHZ001>008-015>018-024>027-034-035-043-044-042200-
   NORTHWEST OHIO

CITY           SKY/WX    TMP DP  RH WIND       PRES   REMARKS
DEFIANCE       FAIR      75  66  73 S8        30.02S
FINDLAY        FAIR      72  63  73 E7        30.00F
TOLEDO EXPRESS FAIR      80  70  71 S7        30.00S
TOLEDO EXEC    CLOUDY    76  69  79 S14       30.02R THUNDER
LIMA           FAIR      68  66  93 E13       30.01F
$$

OHZ009>014-019>023-028>033-038-089-042200-
   NORTHEAST OHIO

CITY           SKY/WX    TMP DP  RH WIND       PRES   REMARKS
CLE-HOPKINS    FAIR      81  66  60 S9        30.06S
CLE-LAKEFRONT  FAIR      81  73  76 N8        30.02F
CUY CO. ARPT   PTSUNNY   86  68  54 SW9       30.04F
LORAIN-ELYRIA  FAIR      79  67  66 S6        30.05S
ASHTABULA      FAIR      81  65  58 S5        30.07F
AKRON-CANTON   PTSUNNY   82  64  54 S10       30.07S
WOOSTER        NOT AVBL
MANSFIELD      FAIR      81  70  69 SE7       30.06R
YOUNGSTOWN     FAIR      80  67  64 CALM      30.08S
$$

OHZ042-051>053-060>062-070>072-077>081-042200-
  SOUTHWEST OHIO

CITY           SKY/WX    TMP DP  RH WIND       PRES   REMARKS
CINC-COVINGTON FAIR      92  67  43 SW6       30.01F HX  95
CINC-LUNKEN    FAIR      91  67  44 SW7       29.98F HX  94
HAMILTON       FAIR      94  67  41 VRB5      29.99F HX  97
DAYTON         TSTM      68  65  90 E8        30.07S FOG
WRIGHT-PAT AFB TSTM      75  63  64 N6        30.06R
DAYTON GENERAL FAIR      76  64  66 NE12      30.03R THUNDER
WILMINGTON     FAIR      90  68  48 SW7       30.02F HX  94
$$

OHZ036-037-039>041-045>050-054>059-063>069-073>076-082>088-042200-
  CENTRAL AND SOUTHEAST OHIO

CITY           SKY/WX    TMP DP  RH WIND       PRES   REMARKS
COLUMBUS       CLOUDY    75  60  59 NW32G47   30.07R SQUALL
OSU AIRPORT    NOT AVBL
BOLTON FIELD   TSTM      70  64  83 N23G39    30.10R VSB 1
RICKENBACK AFB NOT AVBL
NEWARK         FAIR      86  70  58 SE5       30.04S HX  90
MARION         FAIR      72  64  76 W8        30.05F
LANCASTER        N/A     89  69  51 S6        30.04S HX  93
ZANESVILLE     FAIR      84  67  56 S7        30.05F
NEW PHILLY     FAIR      78  70  76 CALM      30.06F
$$



USA.gov is the U.S. government's official web portal to all federal, state and local government web resources and services.